Regional Weather Roundup
Issued by NWS Huntsville, AL

Home | Current Version | Previous Version | Text Only | Print | Product List | Glossary On
Versions: 1 2 3 4 5 6 7 8 9 10 11 12 13 14 15 16 17 18 19 20 21 22 23 24 25 26 27 28
000
ASUS44 KHUN 031810
RWRHUN

WEATHER ROUNDUP FOR THE TENNESSEE VALLEY
NATIONAL WEATHER SERVICE HUNTSVILLE AL
1200 PM CST SAT DEC 03 2016

ALZ001>004-031900-
NORTHWEST ALABAMA

CITY           SKY/WX    TMP DP  RH WIND       PRES   REMARKS
COURTLAND HCN    N/A     46 N/A N/A NE5         N/A
RUSSELLVILLE     N/A     45 N/A N/A MISG        N/A
SHOALS AIRPORT CLOUDY    49  34  56 NE5       30.32S
6HR MIN TEMP:  44; 6HR MAX TEMP:  49;

SHOALS TVA RES   N/A     48 N/A N/A MISG        N/A
$$

ALZ005>007-016-031900-
NORTH CENTRAL ALABAMA

CITY           SKY/WX    TMP DP  RH WIND       PRES   REMARKS
CULLMAN AG STN   N/A     48 N/A N/A NE3         N/A
DECATUR AP     LGT RAIN  48  35  60 N5        30.30S
6HR MIN TEMP:  40; 6HR MAX TEMP:  49; 6HR PCP: TRACE;

HUNTSVILLE AP  LGT RAIN  49  36  61 CALM      30.29F
6HR MIN TEMP:  41; 6HR MAX TEMP:  50; 6HR PCP: TRACE;

MERIDIANVILLE  CLOUDY    46  32  57 N7        30.29F
REDSTONE ARSN  CLOUDY    48  34  58 CALM      30.28S
VINEMONT AP    LGT RAIN  46  32  57 CALM      30.31R
$$

ALZ008>010-031900-
NORTHEAST ALABAMA

CITY           SKY/WX    TMP DP  RH WIND       PRES   REMARKS
ALBERTVILLE    CLOUDY    46  37  71 N5        30.26S
FORT PAYNE     CLOUDY    46  30  53 NE6       30.25F
SCOTTSBORO AP  CLOUDY    46  32  57 NE7       30.28F
SCOTTSBORO HCN   N/A     46 N/A N/A MISG        N/A
VALLEY HEAD      N/A     46 N/A N/A MISG        N/A
$$

TNZ076-096-097-031900-
SOUTHEASTERN MIDDLE TENNESSEE

CITY           SKY/WX    TMP DP  RH WIND       PRES   REMARKS
TULLAHOMA      SUNNY     43  30  61 N6        30.28F
WINCHESTER     SUNNY     45  34  65 N3        30.28F
$$

...SURROUNDING SITES...

CITY           SKY/WX    TMP DP  RH WIND       PRES   REMARKS
ATLANTA        CLOUDY    55  30  38 VRB3      30.23S
ANNISTON       CLOUDY    54  30  40 CALM      30.25F
BIRMINGHAM     CLOUDY    53  30  41 E6        30.30S
CHATTANOOGA    CLOUDY    47  32  56 N9        30.29F
CORINTH        FAIR      46  34  61 CALM      30.30F
DALTON         CLOUDY    46  34  61 N8        30.27F
GADSDEN        CLOUDY    51  33  50 SE3       30.28F
GOLDEN TRNGL   CLOUDY    48  41  76 N6        30.25F
HALEYVILLE     LGT RAIN  44  41  89 CALM      30.31S
JACKSON TN     NOT AVBL
MEMPHIS        LGT RAIN  47  36  65 SE7       30.30F
NASHVILLE      CLOUDY    45  30  55 VRB3      30.34F
OXFORD MS      LGT RAIN  41  39  93 NE7       30.32F
ROME           CLOUDY    49  31  49 N8        30.25F
SAVANNAH       SUNNY     46  34  61 NE5       30.31F
TUPELO         LGT RAIN  45  41  86 N7        30.31F
TUSCALOOSA     LGT RAIN  52  39  61 NE6       30.26F
$$

...GULF COAST WEATHER...

CITY           SKY/WX    TMP DP  RH WIND       PRES   REMARKS
GULFPORT       CLOUDY    62  41  46 NE12      30.11F
PASCAGOULA     CLOUDY    63  38  39 E8        30.14F
MOBILE         CLOUDY    61  35  37 E8        30.15F
GULF SHORES    MOCLDY    65  42  43 E20G29    30.13F
PENSACOLA      PTSUNNY   63  34  33 E20       30.12F
DESTIN         PTSUNNY   63  39  41 E10G16    30.15F
PANAMA CITY    SUNNY     67  35  31 E10       30.14F
APPALACHICOLA  MOSUNNY   67  37  33 E15       30.15F
$$





USA.gov is the U.S. government's official web portal to all federal, state and local government web resources and services.